星链-30226 (STARLINK-30226 )

导读

STARLINK-30226是美国太空探索技术公司星链互联网卫星星座的一员,于2023年8月7日在美国发射升空,属于星链项目的补网卫星。它运行在近地轨道,旨在为全球提供高速低延迟的互联网服务,尤其服务偏远地区,也为马斯克推进星链组网、构建全球卫星互联网系统提供支撑,进一步扩大了星链星座的覆盖规模。

基本信息
目录编号:
57497
目录名称:
STARLINK-30226
国际标识:
2023-113C
轨道中心:
EARTH
卫星名称:
星链-30226
卫星全名:
星链-30226 (STARLINK-30226 )
卫星状态:
在轨 (已飞行1124 天)
发射日期:
2023-08-07 UTC
国别 :
美国 (US)
星等 :
--
轨道信息
数据来源 国际轨道数据 AOE轨道数据
星历时间 2026-09-03T22:25:35+0800
16小时前
查看轨道信息
2026-09-02T12:00:00+0800
2天前
查看轨道信息
半长轴 6861.551km 6861.227km
偏心率 0.0000812 0.0001295
轨道倾角 43.004° 43.004°
近地点辐角 272.409° 257.270°
升交点赤经 91.403° 99.505°
平近点角 87.667° 125.696°
近地点 482.856km 482.201km
远地点 483.972km 483.979km
周期 94.274分钟 94.268分钟
每日圈数 15.274582 15.275666
详细信息
固有亮度:
5
最大亮度:
0.3
卫星平台:
Starlink v2.0 mini
覆盖范围:
全球
运营商:
太空探索技术公司
运营商所在国:
美国
制造商(研发单位):
太空探索技术公司
制造商所在国:
美国
使用方式:
暂无
卫星简介
星链(Starlink)计划是由太空探索技术公司(SpaceX)提出的一个巨型低轨卫星互联网星座项目,计划在2019年至2024年间在太空搭建由约1.2万颗卫星组成的“星链”网络,其中1584颗将部署在地球上空550千米处的近地轨道,并从2020年开始工作。该卫星仍在工作。
2D轨道图
3D轨道图
轨道高度分析图
轨道倾角分析图
轨道综合分析图
查看轨道综合分析图
交会数据列表
事件ID 空间交会对象 最接近时刻(TCA) 交会距离 交会风险概率(CRP) 交会风险指数(CRI) 操作
CDM_260831-170905-749706-679921
2026-08-31T
17:09:28+0000
0.133 km
中距离
9.15193E-4 高风险 0.94
CDM_260903-205505-749706-192722
2026-09-03T
20:55:31+0000
0.744 km
远距离
4.547197E-5 中风险 0.68
CDM_260904-084105-749706-192721
2026-09-04T
08:41:40+0000
0.898 km
远距离
2.462254E-5 中风险 0.63
CDM_260903-192105-749706-192721
2026-09-03T
19:21:22+0000
1.368 km
极远距离
5.81392E-6 低风险 0.5
CDM_260905-012100-635005-749721
2026-09-05T
01:21:52+0000
1.593 km
极远距离
2.528892E-6 低风险 0.43
CDM_260904-101505-749706-192722
2026-09-04T
10:15:49+0000
1.893 km
极远距离
2.175807E-6 低风险 0.42
CDM_260901-070905-749706-074922
OBJECT E (60749)
2026-09-01T
07:09:34+0000
2.887 km
极远距离
1.166659E-6 低风险 0.36
CDM_260903-222905-749706-192722
2026-09-03T
22:29:41+0000
2.895 km
极远距离
9.631598E-7 极低风险 0.35
CDM_260831-153505-749706-679921
2026-08-31T
15:35:19+0000
2.981 km
极远距离
9.427864E-7 极低风险 0.34